GW7ERI-1 Weather Reports


Display with metric or nautical units.
time (UTC)temp
F
wind
direction
speed
MPH
gust
MPH
rain 1hr
in
rain 24hr
in
rain mn
in
humidity
%
barometer
mb
20180623234806 62 78 0.0 1.0 0.00 0.00 0.00 67 1023.2
20180623233906 62 346 0.0 5.0 0.00 0.00 0.00 66 1023.1
20180623233006 62 335 1.0 5.0 0.00 0.00 0.00 66 1023.2
20180623232106 62 337 0.0 1.0 0.00 0.00 0.00 67 1023.1
20180623231206 62 0 0.0 0.0 0.00 0.00 0.00 66 1023.2
20180623230306 63 331 0.0 2.0 0.00 0.00 0.00 66 1023.3
20180623225406 63 338 0.0 3.0 0.00 0.00 0.00 66 1023.2
20180623224506 63 2 0.0 3.0 0.00 0.00 0.00 65 1023.4
20180623223606 64 32 0.0 5.0 0.00 0.00 0.00 64 1023.2
20180623221806 64 71 0.0 4.0 0.00 0.00 0.00 63 1023.3
20180623220906 64 0 0.0 0.0 0.00 0.00 0.00 62 1023.2
20180623220006 65 337 0.0 2.0 0.00 0.00 0.00 61 1023.2
20180623215106 65 334 0.0 4.0 0.00 0.00 0.00 60 1023.2
20180623214206 65 322 0.0 4.0 0.00 0.00 0.00 60 1023.2
20180623213306 64 317 0.0 3.0 0.00 0.00 0.00 62 1023.2
20180623212406 64 318 0.0 2.0 0.00 0.00 0.00 66 1023.3
20180623211506 64 0 0.0 0.0 0.00 0.00 0.00 72 1023.2
20180623210606 65 0 0.0 0.0 0.00 0.00 0.00 76 1023.2
20180623205706 65 0 0.0 0.0 0.00 0.00 0.00 77 1023.0
20180623204806 65 0 0.0 0.0 0.00 0.00 0.00 76 1023.0
20180623203906 66 0 0.0 0.0 0.00 0.00 0.00 74 1022.9
20180623202106 67 0 0.0 0.0 0.00 0.00 0.00 73 1022.7
20180623201206 68 0 0.0 0.0 0.00 0.00 0.00 73 1022.6
20180623200306 68 0 0.0 0.0 0.00 0.00 0.00 71 1022.7
20180623194506 70 0 0.0 0.0 0.00 0.00 0.00 67 1022.4
20180623193605 71 0 0.0 0.0 0.00 0.00 0.00 63 1022.4
20180623192706 71 0 0.0 0.0 0.00 0.00 0.00 62 1022.4
20180623191805 71 0 0.0 0.0 0.00 0.00 0.00 62 1022.4
20180623190905 71 0 0.0 0.0 0.00 0.00 0.00 62 1022.5
20180623184205 71 212 0.0 2.0 0.00 0.00 0.00 59 1022.5
20180623183305 71 199 0.0 2.0 0.00 0.00 0.00 57 1022.5
20180623182405 70 207 0.0 3.0 0.00 0.00 0.00 56 1022.5
20180623181505 71 214 1.0 6.0 0.00 0.00 0.00 55 1022.5
20180623180605 71 215 2.0 7.0 0.00 0.00 0.00 53 1022.5
20180623175705 72 223 2.0 6.0 0.00 0.00 0.00 51 1022.5
20180623174805 72 224 2.0 6.0 0.00 0.00 0.00 49 1022.6
20180623173905 72 223 2.0 7.0 0.00 0.00 0.00 49 1022.6
20180623173005 72 227 2.0 7.0 0.00 0.00 0.00 48 1022.7
20180623172105 73 218 2.0 8.0 0.00 0.00 0.00 46 1022.6
20180623171205 73 215 2.0 7.0 0.00 0.00 0.00 46 1022.8
20180623170305 73 213 3.0 7.0 0.00 0.00 0.00 47 1022.8
20180623165405 73 200 3.0 7.0 0.00 0.00 0.00 47 1022.9
20180623164505 74 210 3.0 9.0 0.00 0.00 0.00 49 1022.9
20180623163605 74 205 3.0 9.0 0.00 0.00 0.00 47 1023.2
20180623162705 74 202 3.0 7.0 0.00 0.00 0.00 45 1023.2
20180623161805 74 209 3.0 7.0 0.00 0.00 0.00 44 1023.3
20180623160905 75 220 3.0 7.0 0.00 0.00 0.00 42 1023.2
20180623160005 75 229 2.0 9.0 0.00 0.00 0.00 40 1023.3
20180623154205 75 215 3.0 8.0 0.00 0.00 0.00 40 1023.4
20180623153305 76 226 2.0 6.0 0.00 0.00 0.00 41 1023.3
20180623152405 75 218 2.0 8.0 0.00 0.00 0.00 42 1023.6
20180623151505 75 222 3.0 7.0 0.00 0.00 0.00 44 1023.6
20180623150605 74 217 3.0 9.0 0.00 0.00 0.00 43 1023.5
20180623145705 74 212 2.0 7.0 0.00 0.00 0.00 46 1023.7
20180623144804 75 217 2.0 8.0 0.00 0.00 0.00 46 1023.7
20180623143905 75 233 2.0 8.0 0.00 0.00 0.00 44 1023.8
20180623143005 75 217 2.0 7.0 0.00 0.00 0.00 45 1023.9
20180623142105 75 223 2.0 7.0 0.00 0.00 0.00 42 1023.9
20180623141204 75 216 2.0 7.0 0.00 0.00 0.00 42 1024.1
20180623140304 74 214 3.0 9.0 0.00 0.00 0.00 43 1024.3
20180623135405 74 207 3.0 8.0 0.00 0.00 0.00 43 1024.4
20180623134504 74 199 3.0 9.0 0.00 0.00 0.00 44 1024.4
20180623133605 74 202 3.0 8.0 0.00 0.00 0.00 43 1024.4
20180623132704 75 202 2.0 8.0 0.00 0.00 0.00 43 1024.4
20180623131804 75 238 1.0 5.0 0.00 0.00 0.00 42 1024.5
20180623130904 74 194 2.0 9.0 0.00 0.00 0.00 45 1024.6
20180623130004 74 202 2.0 5.0 0.00 0.00 0.00 44 1024.7
20180623124424 72 189 3.0 8.0 0.00 0.00 0.00 46 1024.7
20180623123523 72 185 3.0 8.0 0.00 0.00 0.00 45 1024.8
20180623122623 72 198 2.0 8.0 0.00 0.00 0.00 45 1024.8
20180623121723 71 183 3.0 8.0 0.00 0.00 0.00 47 1025.1
20180623120823 71 186 3.0 8.0 0.00 0.00 0.00 46 1025.1
20180623115923 71 187 4.0 8.0 0.00 0.00 0.00 45 1025.1
20180623115023 71 183 4.0 9.0 0.00 0.00 0.00 44 1025.2
20180623114123 72 197 2.0 6.0 0.00 0.00 0.00 44 1025.1
20180623113223 71 183 2.0 7.0 0.00 0.00 0.00 44 1025.1
20180623112323 71 186 2.0 5.0 0.00 0.00 0.00 43 1025.1
20180623111423 71 188 2.0 7.0 0.00 0.00 0.00 43 1025.3
20180623110523 71 195 2.0 8.0 0.00 0.00 0.00 43 1025.5
20180623105623 70 176 1.0 4.0 0.00 0.00 0.00 43 1025.5
20180623104723 70 181 1.0 4.0 0.00 0.00 0.00 44 1025.8
20180623103823 71 172 1.0 4.0 0.00 0.00 0.00 45 1026.0
20180623102923 71 186 1.0 5.0 0.00 0.00 0.00 44 1025.8
20180623102023 72 190 0.0 3.0 0.00 0.00 0.00 43 1025.8
20180623101123 72 190 0.0 4.0 0.00 0.00 0.00 43 1025.8
20180623100223 70 174 0.0 4.0 0.00 0.00 0.00 45 1025.9
20180623095323 69 204 0.0 2.0 0.00 0.00 0.00 46 1026.0
20180623094423 67 154 0.0 2.0 0.00 0.00 0.00 47 1026.0
20180623093523 66 189 0.0 2.0 0.00 0.00 0.00 50 1025.9
20180623092623 66 189 0.0 2.0 0.00 0.00 0.00 49 1026.1
20180623091723 66 183 1.0 3.0 0.00 0.00 0.00 50 1026.1
20180623090823 66 190 1.0 3.0 0.00 0.00 0.00 49 1026.0
20180623085923 67 178 0.0 2.0 0.00 0.00 0.00 48 1026.0
20180623085023 66 176 0.0 2.0 0.00 0.00 0.00 48 1026.1
20180623084123 67 165 0.0 1.0 0.00 0.00 0.00 48 1026.2
20180623083223 66 173 0.0 2.0 0.00 0.00 0.00 48 1026.2
20180623082323 66 207 0.0 1.0 0.00 0.00 0.00 48 1026.3
20180623081423 65 234 0.0 2.0 0.00 0.00 0.00 48 1026.4
20180623080522 66 207 0.0 1.0 0.00 0.00 0.00 49 1026.4
20180623075622 65 167 0.0 1.0 0.00 0.00 0.00 48 1026.6
20180623074723 64 186 0.0 2.0 0.00 0.00 0.00 50 1026.3
20180623073822 64 194 0.0 2.0 0.00 0.00 0.00 51 1026.4
20180623072922 63 191 0.0 1.0 0.00 0.00 0.00 53 1026.3
20180623072022 63 208 0.0 1.0 0.00 0.00 0.00 54 1026.4
20180623071122 63 176 0.0 1.0 0.00 0.00 0.00 55 1026.5
20180623070222 63 0 0.0 0.0 0.00 0.00 0.00 53 1026.4
20180623065322 63 0 0.0 0.0 0.00 0.00 0.00 53 1026.4
20180623062622 59 0 0.0 0.0 0.00 0.00 0.00 60 1026.4
20180623061722 58 0 0.0 0.0 0.00 0.00 0.00 64 1026.5
20180623060822 56 0 0.0 0.0 0.00 0.00 0.00 65 1026.5
20180623055022 55 0 0.0 0.0 0.00 0.00 0.00 68 1026.4
20180623054122 54 0 0.0 0.0 0.00 0.00 0.00 69 1026.4
20180623053222 54 0 0.0 0.0 0.00 0.00 0.00 70 1026.5
20180623051422 53 0 0.0 0.0 0.00 0.00 0.00 73 1026.1
20180623050522 53 328 0.0 1.0 0.00 0.00 0.00 74 1026.2
20180623045622 52 333 0.0 2.0 0.00 0.00 0.00 76 1026.1
20180623044722 51 355 0.0 2.0 0.00 0.00 0.00 76 1026.2
20180623042922 51 0 0.0 0.0 0.00 0.00 0.00 72 1026.0
20180623041122 52 0 0.0 0.0 0.00 0.00 0.00 68 1026.1
20180623040222 52 0 0.0 0.0 0.00 0.00 0.00 69 1026.3
20180623035322 52 0 0.0 0.0 0.00 0.00 0.00 69 1026.4
20180623034422 52 0 0.0 0.0 0.00 0.00 0.00 68 1026.4
20180623033522 52 0 0.0 0.0 0.00 0.00 0.00 68 1026.4
20180623032622 52 0 0.0 0.0 0.00 0.00 0.00 68 1026.5
20180623031722 53 328 0.0 2.0 0.00 0.00 0.00 68 1026.4
20180623030822 53 49 0.0 1.0 0.00 0.00 0.00 68 1026.5
20180623025921 53 328 0.0 1.0 0.00 0.00 0.00 69 1026.5
20180623025022 53 328 0.0 3.0 0.00 0.00 0.00 70 1026.5
20180623024122 52 319 0.0 1.0 0.00 0.00 0.00 72 1026.4
20180623023221 52 0 0.0 0.0 0.00 0.00 0.00 73 1026.5
20180623022321 52 0 0.0 0.0 0.00 0.00 0.00 77 1026.5
20180623021421 53 316 0.0 1.0 0.00 0.00 0.00 80 1026.5
20180623020521 53 314 0.0 1.0 0.00 0.00 0.00 79 1026.5
20180623015621 53 318 0.0 3.0 0.00 0.00 0.00 75 1026.5
20180623014721 53 0 0.0 0.0 0.00 0.00 0.00 79 1026.5
20180623012921 53 326 0.0 1.0 0.00 0.00 0.00 79 1026.4
20180623012021 53 327 0.0 1.0 0.00 0.00 0.00 81 1026.4
20180623011121 53 0 0.0 0.0 0.00 0.00 0.00 81 1026.3
20180623010221 54 326 0.0 1.0 0.00 0.00 0.00 80 1026.2
20180623005321 55 326 0.0 2.0 0.00 0.00 0.00 78 1026.3
20180623004421 54 309 0.0 1.0 0.00 0.00 0.00 76 1026.3
20180623002621 54 0 0.0 0.0 0.00 0.00 0.00 81 1026.4
20180623001721 54 0 0.0 0.0 0.00 0.00 0.00 81 1026.3
20180623000821 54 0 0.0 0.0 0.00 0.00 0.00 81 1026.4